Station Historical Data
Daily Summary for January 10, 2017 Units:  Metric    English   Both
« Previous Day
Next Day »
Daily Weekly Monthly Yearly Custom
  High: Low: Average:
Temperature: 12.9 °C -0.4 °C 6.4 °C
Dew Point: 6.8 °C -10.9 °C -1.9 °C
Humidity: 68% 43% 55%
Wind Speed: 16.7km/h 16.7km/h 16.7km/h
Wind Gust: 16.7km/h - -
Wind- - SW
Pressure: 1035.8 hPa 1027 hPa -
Precipitation: 2.29 mm    
Historical Graphs
 
 
Tabular Data for January 10, 2017
Time Temperature Dew Point Pressure Wind Wind Speed Wind Gust Humidity Rainfall Rate (Hourly) Conditions
00:01 0.2 °C -10.9 °C 1035.8 hPa NW 16.7 km/h 16.7 km/h 43% 0 mm RA
00:06 0.2 °C -10.6 °C 1035.8 hPa NW 16.7 km/h   44% 0 mm
00:11 0.2 °C -10.7 °C 1035.8 hPa NW 16.7 km/h   44% 0 mm
00:16 0.2 °C -10.9 °C 1035.8 hPa NW 16.7 km/h   43% 0 mm
00:22 0.2 °C -10.9 °C 1035.8 hPa NW 16.7 km/h   43% 0 mm
00:27 0.2 °C -10.9 °C 1035.8 hPa NNE 16.7 km/h   43% 0 mm
00:32 0.2 °C -10.6 °C 1035.8 hPa North 16.7 km/h   44% 0 mm
00:37 0.2 °C -10.1 °C 1035.8 hPa North 16.7 km/h   46% 0 mm
00:42 0.2 °C -10.1 °C 1035.8 hPa North 16.7 km/h   46% 0 mm
00:47 0.2 °C -10.4 °C 1035.8 hPa North 16.7 km/h   45% 0 mm
00:52 0.2 °C -10.3 °C 1035.4 hPa North 16.7 km/h 16.7 km/h 45% 0 mm
00:57 0.2 °C -10.3 °C 1035.4 hPa NNW 16.7 km/h   45% 0 mm
01:02 0.3 °C -9.9 °C 1035.4 hPa NNW 16.7 km/h   46% 0 mm
01:07 0.4 °C -10.2 °C 1035.1 hPa WNW 16.7 km/h 16.7 km/h 45% 0 mm
01:12 0.4 °C -10.2 °C 1035.1 hPa WNW 16.7 km/h   45% 0 mm
01:17 0.3 °C -10.6 °C 1035.1 hPa WNW 16.7 km/h   44% 0 mm
01:22 0.2 °C -10.3 °C 1035.4 hPa WNW 16.7 km/h 16.7 km/h 45% 0 mm
01:27 0.2 °C -10.4 °C 1035.1 hPa WNW 16.7 km/h   45% 0 mm
01:33 0.1 °C -10.4 °C 1035.1 hPa WNW 16.7 km/h   45% 0 mm
01:38 0.1 °C -9.9 °C 1034.8 hPa WNW 16.7 km/h   47% 0 mm
01:43 0 °C -9.7 °C 1034.8 hPa WNW 16.7 km/h   48% 0 mm
01:48 0 °C -9.4 °C 1034.8 hPa WNW 16.7 km/h   49% 0 mm
01:53 0 °C -9.7 °C 1034.8 hPa West 16.7 km/h   48% 0 mm
01:58 0 °C -9.4 °C 1034.8 hPa West 16.7 km/h 16.7 km/h 49% 0 mm
02:03 0 °C -9.4 °C 1034.8 hPa NW 16.7 km/h 16.7 km/h 49% 0 mm
02:08 0 °C -9.4 °C 1034.4 hPa West 16.7 km/h 16.7 km/h 49% 0 mm
02:13 0 °C -9.7 °C 1034.8 hPa WNW 16.7 km/h   48% 0 mm
02:18 0 °C -9.2 °C 1034.8 hPa WNW 16.7 km/h   50% 0 mm
02:23 0 °C -9.4 °C 1034.8 hPa West 16.7 km/h   49% 0 mm
02:28 0.1 °C -9.7 °C 1034.8 hPa WNW 16.7 km/h   48% 0 mm
02:33 0.1 °C -9.6 °C 1034.8 hPa West 16.7 km/h   48% 0 mm
02:38 0.2 °C -9.6 °C 1034.8 hPa West 16.7 km/h   48% 0 mm
02:43 0.2 °C -9.3 °C 1034.8 hPa West 16.7 km/h   49% 0 mm
02:49 0.2 °C -9.6 °C 1034.8 hPa West 16.7 km/h   48% 0 mm
02:54 -0.4 °C -10.1 °C 1034.8 hPa West 16.7 km/h   48% 0 mm
02:59 -0.4 °C -10.1 °C 1034.8 hPa West 16.7 km/h   48% 0 mm
03:04 -0.4 °C -10.1 °C 1034.8 hPa NNE 16.7 km/h   48% 0 mm
03:09 -0.4 °C -10.1 °C 1034.8 hPa North 16.7 km/h   48% 0 mm
03:14 -0.4 °C -10.1 °C 1034.8 hPa North 16.7 km/h   48% 0 mm
03:19 -0.4 °C -10.1 °C 1034.4 hPa North 16.7 km/h   48% 0 mm
03:24 -0.4 °C -10.1 °C 1034.4 hPa North 16.7 km/h   48% 0 mm
03:29 -0.4 °C -10.1 °C 1034.1 hPa North 16.7 km/h   48% 0 mm
03:34 -0.4 °C -10.1 °C 1034.4 hPa North 16.7 km/h   48% 0 mm
03:39 -0.4 °C -10.1 °C 1034.4 hPa North 16.7 km/h   48% 0 mm
03:44 -0.4 °C -10.1 °C 1034.1 hPa North 16.7 km/h   48% 0 mm
03:49 -0.4 °C -10.1 °C 1034.1 hPa North 16.7 km/h   48% 0 mm
03:54 -0.4 °C -10.1 °C 1034.4 hPa North 16.7 km/h   48% 0 mm
03:59 -0.4 °C -10.1 °C 1034.1 hPa North 16.7 km/h   48% 0 mm
04:05 -0.4 °C -10.1 °C 1033.7 hPa North 16.7 km/h   48% 0 mm
04:10 -0.4 °C -10.1 °C 1033.7 hPa North 16.7 km/h   48% 0 mm
04:15 -0.4 °C -10.1 °C 1034.1 hPa North 16.7 km/h   48% 0 mm
04:20 -0.4 °C -10.1 °C 1034.1 hPa North 16.7 km/h   48% 0 mm
04:25 -0.4 °C -10.1 °C 1034.1 hPa North 16.7 km/h   48% 0 mm
04:30 -0.4 °C -10.1 °C 1034.1 hPa North 16.7 km/h   48% 0 mm
04:35 -0.4 °C -10.1 °C 1034.1 hPa North 16.7 km/h   48% 0 mm
04:40 -0.4 °C -10.1 °C 1034.1 hPa North 16.7 km/h   48% 0 mm
04:45 -0.4 °C -10.1 °C 1034.1 hPa North 16.7 km/h   48% 0 mm
04:50 -0.4 °C -10.1 °C 1034.1 hPa North 16.7 km/h   48% 0 mm
04:56 -0.4 °C -10.1 °C 1033.7 hPa North 16.7 km/h   48% 0 mm
05:01 -0.4 °C -10.1 °C 1033.7 hPa North 16.7 km/h   48% 0 mm
05:06 -0.4 °C -10.1 °C 1033.7 hPa North 16.7 km/h   48% 0 mm
05:11 -0.4 °C -10.1 °C 1033.7 hPa North 16.7 km/h   48% 0 mm
05:16 -0.4 °C -10.1 °C 1033.7 hPa North 16.7 km/h   48% 0 mm
05:21 -0.4 °C -10.1 °C 1033.7 hPa North 16.7 km/h   48% 0 mm
05:26 -0.4 °C -10.1 °C 1033.7 hPa North 16.7 km/h   48% 0 mm
05:31 -0.4 °C -10.1 °C 1033.4 hPa North 16.7 km/h   48% 0 mm
05:36 -0.4 °C -10.1 °C 1033.4 hPa North 16.7 km/h   48% 0 mm
05:41 -0.4 °C -10.1 °C 1033.4 hPa North 16.7 km/h   48% 0 mm
05:46 -0.4 °C -10.1 °C 1033.4 hPa North 16.7 km/h   48% 0 mm
05:51 -0.4 °C -10.1 °C 1033.7 hPa North 16.7 km/h   48% 0 mm
05:56 -0.4 °C -10.1 °C 1033.4 hPa North 16.7 km/h   48% 0 mm
06:01 -0.4 °C -10.1 °C 1033.4 hPa North 16.7 km/h   48% 0 mm
06:06 -0.4 °C -10.1 °C 1033.4 hPa North 16.7 km/h   48% 0 mm
06:11 -0.4 °C -10.1 °C 1033.4 hPa North 16.7 km/h   48% 0 mm
06:17 -0.4 °C -10.1 °C 1033.4 hPa North 16.7 km/h   48% 0 mm
06:22 -0.4 °C -10.1 °C 1033.4 hPa North 16.7 km/h   48% 0 mm
06:27 -0.4 °C -10.1 °C 1033.7 hPa North 16.7 km/h   48% 0 mm
06:32 -0.4 °C -10.1 °C 1033.4 hPa North 16.7 km/h   48% 0 mm
06:37 -0.4 °C -10.1 °C 1033.4 hPa North 16.7 km/h   48% 0 mm
06:42 -0.4 °C -10.1 °C 1033.1 hPa North 16.7 km/h   48% 0 mm
06:47 -0.4 °C -10.1 °C 1033.4 hPa North 16.7 km/h   48% 0 mm
06:52 -0.4 °C -10.1 °C 1033.4 hPa North 16.7 km/h   48% 0 mm
06:57 -0.4 °C -10.1 °C 1033.4 hPa North 16.7 km/h   48% 0 mm
07:02 -0.4 °C -10.1 °C 1033.4 hPa North 16.7 km/h   48% 0 mm
07:07 -0.4 °C -10.1 °C 1033.4 hPa North 16.7 km/h   48% 0 mm
07:12 -0.4 °C -10.1 °C 1033.7 hPa North 16.7 km/h   48% 0 mm
07:17 -0.4 °C -10.1 °C 1033.7 hPa North 16.7 km/h   48% 0 mm CLR
07:22 -0.4 °C -10.1 °C 1033.7 hPa North 16.7 km/h   48% 0 mm CLR
07:27 -0.4 °C -10.1 °C 1033.7 hPa North 16.7 km/h   48% 0 mm CLR
07:32 -0.4 °C -10.1 °C 1033.7 hPa North 16.7 km/h   48% 0 mm CLR
07:38 -0.4 °C -10.1 °C 1033.7 hPa North 16.7 km/h   48% 0 mm CLR
07:43 -0.4 °C -10.1 °C 1034.1 hPa North 16.7 km/h   48% 0 mm CLR
07:48 -0.4 °C -10.1 °C 1034.1 hPa North 16.7 km/h   48% 0 mm CLR
07:53 -0.4 °C -10.1 °C 1034.1 hPa North 16.7 km/h   48% 0 mm CLR
07:58 -0.4 °C -10.1 °C 1034.1 hPa North 16.7 km/h   48% 0 mm CLR
08:03 -0.4 °C -10.1 °C 1034.4 hPa North 16.7 km/h   48% 0 mm CLR
08:08 -0.4 °C -10.1 °C 1034.1 hPa North 16.7 km/h   48% 0 mm CLR
08:13 -0.4 °C -10.1 °C 1034.1 hPa North 16.7 km/h   48% 0 mm CLR
08:18 -0.4 °C -10.1 °C 1034.1 hPa North 16.7 km/h   48% 0 mm CLR
08:23 -0.4 °C -10.1 °C 1034.1 hPa North 16.7 km/h   48% 0 mm CLR
08:28 -0.4 °C -10.1 °C 1034.1 hPa North 16.7 km/h   48% 0 mm CLR
08:33 -0.4 °C -10.1 °C 1034.1 hPa North 16.7 km/h   48% 0 mm CLR
08:38 -0.4 °C -10.1 °C 1034.4 hPa North 16.7 km/h   48% 0 mm CLR
08:43 -0.4 °C -10.1 °C 1034.4 hPa North 16.7 km/h   48% 0 mm CLR
08:48 -0.4 °C -10.1 °C 1034.1 hPa North 16.7 km/h   48% 0 mm CLR
08:54 -0.4 °C -10.1 °C 1034.1 hPa North 16.7 km/h   48% 0 mm CLR
08:59 -0.4 °C -10.1 °C 1034.1 hPa North 16.7 km/h   48% 0 mm CLR
09:04 -0.4 °C -10.1 °C 1034.1 hPa North 16.7 km/h   48% 0 mm OVC
09:09 -0.4 °C -10.1 °C 1034.1 hPa North 16.7 km/h   48% 0 mm OVC
09:14 1.3 °C -4.2 °C 1033.7 hPa WNW 16.7 km/h 16.7 km/h 67% 0 mm OVC
09:19 1.3 °C -4.1 °C 1034.1 hPa WNW 16.7 km/h 16.7 km/h 67% 0 mm OVC
09:24 1.3 °C -4.1 °C 1034.1 hPa NW 16.7 km/h 16.7 km/h 67% 0 mm OVC
09:29 1.6 °C -3.7 °C 1034.1 hPa WNW 16.7 km/h 16.7 km/h 68% 0 mm OVC
09:34 1.9 °C -3.6 °C 1034.1 hPa West 16.7 km/h 16.7 km/h 67% 0 mm OVC
09:39 2.2 °C -3.5 °C 1034.1 hPa WNW 16.7 km/h 16.7 km/h 66% 0 mm OVC
09:44 2.3 °C -3.2 °C 1034.4 hPa WNW 16.7 km/h   67% 0 mm OVC
09:49 2.5 °C -3.2 °C 1034.1 hPa NNW 16.7 km/h 16.7 km/h 66% 0 mm OVC
09:55 2.9 °C -2.6 °C 1034.4 hPa NW 16.7 km/h 16.7 km/h 67% 0 mm OVC
09:57 3.1 °C -2.6 °C 1034.4 hPa WNW 16.7 km/h 16.7 km/h 66% 0 mm OVC
10:02 3.3 °C -2.7 °C 1034.4 hPa WNW 16.7 km/h   65% 0 mm OVC
10:07 3.4 °C -2.6 °C 1034.4 hPa NNW 16.7 km/h 16.7 km/h 65% 0 mm OVC
10:12 3.5 °C -2.4 °C 1034.4 hPa WNW 16.7 km/h 16.7 km/h 65% 0 mm OVC
10:17 3.6 °C -2.4 °C 1034.4 hPa North 16.7 km/h 16.7 km/h 65% 0 mm OVC
10:22 3.7 °C -2.1 °C 1034.8 hPa NW 16.7 km/h 16.7 km/h 66% 0 mm OVC
10:27 3.8 °C -2.2 °C 1034.8 hPa NE 16.7 km/h 16.7 km/h 65% 0 mm OVC
10:33 4.2 °C -1.6 °C 1034.4 hPa NNE 16.7 km/h 16.7 km/h 66% 0 mm OVC
10:38 4.5 °C -1.5 °C 1034.4 hPa West 16.7 km/h 16.7 km/h 65% 0 mm OVC
10:43 4.8 °C -1.4 °C 1034.4 hPa NW 16.7 km/h 16.7 km/h 64% 0 mm OVC
10:48 5.2 °C -1.3 °C 1034.1 hPa WNW 16.7 km/h 16.7 km/h 63% 0 mm OVC
10:53 5.6 °C -1.2 °C 1034.1 hPa West 16.7 km/h 16.7 km/h 62% 0 mm OVC
10:58 5.7 °C -1.1 °C 1034.1 hPa WSW 16.7 km/h 16.7 km/h 62% 0 mm OVC
11:03 5.9 °C -0.8 °C 1034.1 hPa WNW 16.7 km/h 16.7 km/h 62% 0 mm OVC
11:08 6.2 °C -0.8 °C 1034.1 hPa NW 16.7 km/h 16.7 km/h 61% 0 mm OVC
11:13 6.6 °C -0.6 °C 1034.1 hPa West 16.7 km/h 16.7 km/h 60% 0 mm OVC
11:18 7.1 °C -0.4 °C 1033.7 hPa NW 16.7 km/h 16.7 km/h 59% 0.25 mm RA
11:23 7.4 °C -0.3 °C 1033.7 hPa West 16.7 km/h 16.7 km/h 58% 0.25 mm OVC
11:28 7.6 °C -0.4 °C 1033.4 hPa NW 16.7 km/h 16.7 km/h 57% 0.51 mm OVC
11:33 7.8 °C -0.4 °C 1033.4 hPa NW 16.7 km/h 16.7 km/h 56% 0.76 mm RA
11:39 8.3 °C 0 °C 1033.1 hPa West 16.7 km/h 16.7 km/h 56% 0.76 mm OVC
11:44 8.3 °C -0.2 °C 1033.1 hPa NW 16.7 km/h 16.7 km/h 55% 0.76 mm OVC
11:49 8.3 °C 0.1 °C 1032.7 hPa NW 16.7 km/h 16.7 km/h 56% 1.02 mm OVC
11:54 8.7 °C -0.1 °C 1032.4 hPa NNW 16.7 km/h 16.7 km/h 54% 1.02 mm OVC
11:59 9 °C 0.2 °C 1032.4 hPa WNW 16.7 km/h 16.7 km/h 54% 1.27 mm RA
12:04 9.3 °C 0.2 °C 1032.1 hPa NW 16.7 km/h 16.7 km/h 53% 1.27 mm OVC
12:09 9.3 °C 0.5 °C 1031.7 hPa WNW 16.7 km/h 16.7 km/h 54% 1.27 mm OVC
12:14 9.4 °C 0 °C 1031.7 hPa NW 16.7 km/h 16.7 km/h 52% 1.27 mm OVC
12:19 9.1 °C 0.3 °C 1031.4 hPa NW 16.7 km/h 16.7 km/h 54% 1.27 mm OVC
12:24 9.4 °C 0.6 °C 1031.4 hPa ENE 16.7 km/h 16.7 km/h 54% 1.27 mm OVC
12:29 9.5 °C 0.7 °C 1031 hPa NW 16.7 km/h 16.7 km/h 54% 1.02 mm OVC
12:34 9.8 °C 0.9 °C 1031 hPa NNW 16.7 km/h 16.7 km/h 54% 0.76 mm OVC
12:39 10.3 °C 1.6 °C 1030.7 hPa NW 16.7 km/h 16.7 km/h 55% 1.02 mm OVC
12:44 10.4 °C 1.4 °C 1030.4 hPa NNW 16.7 km/h 16.7 km/h 54% 1.02 mm OVC
12:50 10.8 °C 1.3 °C 1030.4 hPa NW 16.7 km/h 16.7 km/h 52% 0.76 mm OVC
12:55 10.9 °C 1.2 °C 1030.4 hPa NW 16.7 km/h 16.7 km/h 51% 0.76 mm OVC
13:00 11.1 °C 1.8 °C 1030 hPa West 16.7 km/h 16.7 km/h 53% 0.76 mm OVC
13:05 11.4 °C 1.9 °C 1030 hPa WNW 16.7 km/h 16.7 km/h 52% 0.76 mm OVC
13:10 11.4 °C 1.9 °C 1029.7 hPa NW 16.7 km/h 16.7 km/h 52% 0.76 mm OVC
13:15 11.6 °C 2.3 °C 1029.3 hPa NW 16.7 km/h 16.7 km/h 53% 0.51 mm OVC
13:20 11.7 °C 2.1 °C 1029.3 hPa WNW 16.7 km/h 16.7 km/h 52% 0.51 mm OVC
13:25 11.5 °C 2.5 °C 1028.7 hPa NW 16.7 km/h 16.7 km/h 54% 0.76 mm RA
13:30 11.6 °C 2.6 °C 1028.7 hPa NW 16.7 km/h 16.7 km/h 54% 0.76 mm OVC
13:35 11.6 °C 2.3 °C 1028.7 hPa NW 16.7 km/h 16.7 km/h 53% 0.51 mm OVC
13:40 11.6 °C 2 °C 1028.7 hPa NW 16.7 km/h 16.7 km/h 52% 0.51 mm OVC
13:45 11.3 °C 2.1 °C 1028.7 hPa NE 16.7 km/h 16.7 km/h 53% 0.51 mm OVC
13:50 11.4 °C 2.4 °C 1028.7 hPa NW 16.7 km/h 16.7 km/h 54% 0.51 mm OVC
13:55 11.4 °C 2.4 °C 1028.7 hPa NW 16.7 km/h 16.7 km/h 54% 0.51 mm OVC
14:00 11.5 °C 2.5 °C 1028.7 hPa NW 16.7 km/h 16.7 km/h 54% 0.25 mm OVC
14:06 11.6 °C 2.3 °C 1028.7 hPa NW 16.7 km/h 16.7 km/h 53% 0.25 mm OVC
14:11 11.7 °C 2.4 °C 1028.3 hPa NW 16.7 km/h 16.7 km/h 53% 0.25 mm OVC
14:16 11.6 °C 2.6 °C 1028.3 hPa NW 16.7 km/h 16.7 km/h 54% 0.25 mm OVC
14:21 11.7 °C 2.7 °C 1028 hPa NW 16.7 km/h 16.7 km/h 54% 0.25 mm OVC
14:26 11.7 °C 2.4 °C 1028.3 hPa NW 16.7 km/h 16.7 km/h 53% 0 mm OVC
14:31 11.7 °C 2.9 °C 1028.3 hPa NW 16.7 km/h 16.7 km/h 55% 0 mm OVC
14:36 11.7 °C 2.7 °C 1028.3 hPa NW 16.7 km/h 16.7 km/h 54% 0 mm OVC
14:41 11.6 °C 2.6 °C 1028.3 hPa NW 16.7 km/h 16.7 km/h 54% 0 mm OVC
14:46 11.7 °C 3.2 °C 1028 hPa NW 16.7 km/h 16.7 km/h 56% 0 mm OVC
14:51 11.8 °C 3 °C 1028 hPa WNW 16.7 km/h 16.7 km/h 55% 0 mm OVC
14:56 11.9 °C 3.1 °C 1028 hPa WNW 16.7 km/h 16.7 km/h 55% 0 mm OVC
15:01 12 °C 3.2 °C 1028 hPa NW 16.7 km/h 16.7 km/h 55% 0 mm OVC
15:06 11.9 °C 3.2 °C 1028 hPa NW 16.7 km/h 16.7 km/h 55% 0 mm OVC
15:12 12.1 °C 3.3 °C 1028 hPa NW 16.7 km/h 16.7 km/h 55% 0 mm OVC
15:17 12.2 °C 3.4 °C 1028 hPa WNW 16.7 km/h 16.7 km/h 55% 0 mm OVC
15:22 12.3 °C 3.5 °C 1028.3 hPa West 16.7 km/h 16.7 km/h 55% 0 mm OVC
15:27 12.3 °C 3.5 °C 1028 hPa NW 16.7 km/h 16.7 km/h 55% 0 mm OVC
15:32 12.3 °C 3.6 °C 1028 hPa NW 16.7 km/h 16.7 km/h 55% 0 mm OVC
15:37 12.3 °C 3.6 °C 1028 hPa WNW 16.7 km/h 16.7 km/h 55% 0 mm OVC
15:42 12.4 °C 3.6 °C 1028 hPa NNE 16.7 km/h 16.7 km/h 55% 0 mm OVC
15:47 12.5 °C 3.9 °C 1028 hPa NW 16.7 km/h   56% 0 mm OVC
15:52 12.5 °C 3.7 °C 1028 hPa WNW 16.7 km/h 16.7 km/h 55% 0 mm OVC
15:57 12.4 °C 3.7 °C 1028 hPa WNW 16.7 km/h 16.7 km/h 55% 0 mm OVC
16:02 12.4 °C 3.9 °C 1028 hPa NW 16.7 km/h 16.7 km/h 56% 0 mm CLR
16:07 12.4 °C 3.8 °C 1028 hPa West 16.7 km/h 16.7 km/h 56% 0 mm CLR
16:13 12.4 °C 3.8 °C 1028 hPa WNW 16.7 km/h 16.7 km/h 56% 0 mm CLR
16:18 12.4 °C 3.8 °C 1028 hPa NW 16.7 km/h 16.7 km/h 56% 0 mm CLR
16:23 12.4 °C 4.1 °C 1028.3 hPa WNW 16.7 km/h   57% 0 mm CLR
16:28 12.3 °C 3.8 °C 1028 hPa NW 16.7 km/h 16.7 km/h 56% 0 mm CLR
16:33 12.4 °C 3.8 °C 1028 hPa West 16.7 km/h 16.7 km/h 56% 0 mm CLR
16:38 12.3 °C 4.1 °C 1028.3 hPa West 16.7 km/h   57% 0 mm CLR
16:43 12.3 °C 4.1 °C 1028.3 hPa West 16.7 km/h 16.7 km/h 57% 0 mm CLR
16:48 12.3 °C 4.1 °C 1028.7 hPa NNW 16.7 km/h 16.7 km/h 57% 0 mm CLR
16:53 12.3 °C 4.1 °C 1028.7 hPa NNW 16.7 km/h   57% 0 mm CLR
16:58 12.2 °C 3.9 °C 1028.7 hPa NNW 16.7 km/h 16.7 km/h 57% 0 mm CLR
17:03 12.3 °C 4 °C 1028.7 hPa NNW 16.7 km/h   57% 0 mm CLR
17:08 12.2 °C 4.2 °C 1028.3 hPa NNW 16.7 km/h   58% 0 mm CLR
17:13 12.1 °C 4.1 °C 1028.3 hPa NNW 16.7 km/h   58% 0 mm CLR
17:18 11.9 °C 4.2 °C 1028.3 hPa NNW 16.7 km/h   59% 0 mm CLR
17:24 11.9 °C 4.1 °C 1028.3 hPa NNW 16.7 km/h 16.7 km/h 59% 0 mm CLR
17:29 11.9 °C 4.1 °C 1028.3 hPa NNW 16.7 km/h   59% 0 mm CLR
17:34 11.8 °C 4.3 °C 1028.3 hPa NNW 16.7 km/h   60% 0 mm CLR
17:39 11.8 °C 4.3 °C 1028.3 hPa NNW 16.7 km/h   60% 0 mm CLR
17:44 11.7 °C 4.2 °C 1028 hPa NNW 16.7 km/h 16.7 km/h 60% 0 mm CLR
17:49 11.7 °C 4.4 °C 1027.7 hPa NNW 16.7 km/h   61% 0 mm CLR
17:54 11.6 °C 4.3 °C 1027.7 hPa NNW 16.7 km/h   61% 0 mm CLR
17:59 11.4 °C 4.2 °C 1027.7 hPa NNW 16.7 km/h   61% 0 mm CLR
18:04 11.4 °C 4.2 °C 1027.7 hPa NW 16.7 km/h 16.7 km/h 61% 0 mm
18:09 11.4 °C 4.1 °C 1027.7 hPa NW 16.7 km/h 16.7 km/h 61% 0 mm
18:14 11.4 °C 4.1 °C 1027.7 hPa NW 16.7 km/h   61% 0 mm
18:19 11.4 °C 4.3 °C 1027.7 hPa NW 16.7 km/h 16.7 km/h 62% 0 mm
18:24 11.3 °C 4.3 °C 1027.7 hPa NW 16.7 km/h 16.7 km/h 62% 0 mm
18:29 11.4 °C 4.3 °C 1027.7 hPa NW 16.7 km/h 16.7 km/h 62% 0 mm
18:34 11.4 °C 4.3 °C 1027.7 hPa NW 16.7 km/h   62% 0 mm
18:39 11.4 °C 4.6 °C 1028 hPa NW 16.7 km/h   63% 0 mm
18:44 11.3 °C 4.6 °C 1028 hPa NW 16.7 km/h   63% 0 mm
18:49 11.3 °C 4.5 °C 1028 hPa North 16.7 km/h   63% 0 mm
18:55 11.3 °C 4.5 °C 1028 hPa NW 16.7 km/h 16.7 km/h 63% 0 mm
19:00 11.4 °C 4.6 °C 1028 hPa NW 16.7 km/h 16.7 km/h 63% 0 mm
19:05 11.4 °C 4.6 °C 1028 hPa NW 16.7 km/h 16.7 km/h 63% 0 mm
19:10 11.4 °C 4.7 °C 1027.7 hPa NW 16.7 km/h 16.7 km/h 63% 0 mm
19:15 11.4 °C 4.7 °C 1028 hPa NW 16.7 km/h   63% 0 mm
19:20 11.4 °C 4.7 °C 1027.7 hPa NW 16.7 km/h 16.7 km/h 63% 0 mm
19:25 11.6 °C 4.7 °C 1027.7 hPa NW 16.7 km/h 16.7 km/h 63% 0 mm
19:30 11.6 °C 4.8 °C 1027.7 hPa NW 16.7 km/h 16.7 km/h 63% 0 mm
19:35 11.7 °C 5.1 °C 1027.7 hPa NW 16.7 km/h 16.7 km/h 64% 0 mm
19:40 11.8 °C 5.2 °C 1027.7 hPa NW 16.7 km/h 16.7 km/h 64% 0 mm
19:45 11.9 °C 5.3 °C 1027.3 hPa NW 16.7 km/h 16.7 km/h 64% 0 mm
19:50 12.1 °C 5.4 °C 1027.3 hPa NW 16.7 km/h 16.7 km/h 64% 0 mm
19:56 12.3 °C 5.7 °C 1027.7 hPa North 16.7 km/h 16.7 km/h 64% 0 mm
20:01 12.4 °C 5.6 °C 1027.7 hPa NW 16.7 km/h 16.7 km/h 63% 0 mm
20:06 12.5 °C 5.9 °C 1027.3 hPa NW 16.7 km/h 16.7 km/h 64% 0 mm
20:11 12.6 °C 5.7 °C 1027.3 hPa NW 16.7 km/h 16.7 km/h 63% 0 mm
20:16 12.7 °C 5.8 °C 1027.3 hPa NW 16.7 km/h 16.7 km/h 63% 0 mm
20:21 12.7 °C 5.8 °C 1027.3 hPa WNW 16.7 km/h 16.7 km/h 63% 0 mm
20:26 12.7 °C 6.1 °C 1027.3 hPa NW 16.7 km/h 16.7 km/h 64% 0 mm
20:31 12.7 °C 6.1 °C 1027.3 hPa NW 16.7 km/h 16.7 km/h 64% 0 mm
20:36 12.7 °C 6.1 °C 1027.3 hPa NW 16.7 km/h 16.7 km/h 64% 0 mm
20:41 12.8 °C 5.9 °C 1027 hPa NW 16.7 km/h 16.7 km/h 63% 0 mm
20:46 12.8 °C 5.9 °C 1027 hPa NW 16.7 km/h 16.7 km/h 63% 0 mm
20:51 12.9 °C 6 °C 1027 hPa NW 16.7 km/h 16.7 km/h 63% 0 mm
20:56 12.9 °C 6 °C 1027.3 hPa NW 16.7 km/h 16.7 km/h 63% 0 mm
21:01 12.9 °C 6 °C 1027.3 hPa NW 16.7 km/h 16.7 km/h 63% 0 mm
21:07 12.8 °C 5.9 °C 1027.3 hPa NW 16.7 km/h 16.7 km/h 63% 0 mm
21:12 12.8 °C 6.2 °C 1027 hPa WNW 16.7 km/h 16.7 km/h 64% 0 mm
21:17 12.8 °C 6.2 °C 1027.3 hPa WNW 16.7 km/h 16.7 km/h 64% 0 mm
21:22 12.9 °C 6.2 °C 1027.3 hPa North 16.7 km/h 16.7 km/h 64% 0 mm
21:27 12.9 °C 6.4 °C 1027.3 hPa NNW 16.7 km/h 16.7 km/h 65% 0 mm
21:32 12.9 °C 6.5 °C 1027.3 hPa NW 16.7 km/h 16.7 km/h 65% 0 mm
21:37 12.9 °C 6.7 °C 1027.3 hPa NW 16.7 km/h 16.7 km/h 66% 0 mm
21:43 12.9 °C 6.7 °C 1027.3 hPa NW 16.7 km/h   66% 0 mm
21:48 12.8 °C 6.8 °C 1027.3 hPa NW 16.7 km/h 16.7 km/h 67% 0 mm
21:53 12.8 °C 6.8 °C 1027.3 hPa NW 16.7 km/h   67% 0 mm
21:58 12.7 °C 6.7 °C 1027.3 hPa NNW 16.7 km/h 16.7 km/h 67% 0 mm
22:03 12.7 °C 6.7 °C 1027.3 hPa NW 16.7 km/h 16.7 km/h 67% 0 mm
22:08 12.7 °C 6.7 °C 1027.3 hPa NW 16.7 km/h   67% 0 mm
22:13 12.6 °C 6.8 °C 1027.3 hPa NW 16.7 km/h 16.7 km/h 68% 0 mm
22:18 12.7 °C 6.7 °C 1027.3 hPa WNW 16.7 km/h 16.7 km/h 67% 0 mm
22:23 12.8 °C 6.8 °C 1027.3 hPa NW 16.7 km/h 16.7 km/h 67% 0 mm
22:28 12.7 °C 6.7 °C 1027.3 hPa WNW 16.7 km/h 16.7 km/h 67% 0 mm
22:33 12.8 °C 6.8 °C 1027.3 hPa North 16.7 km/h 16.7 km/h 67% 0 mm
22:38 12.7 °C 6.7 °C 1027.7 hPa NW 16.7 km/h 16.7 km/h 67% 0 mm
22:44 12.8 °C 6.6 °C 1027.7 hPa NW 16.7 km/h   66% 0 mm
22:49 12.7 °C 6.5 °C 1027.7 hPa NNW 16.7 km/h 16.7 km/h 66% 0 mm
22:54 12.7 °C 6.5 °C 1027.3 hPa NW 16.7 km/h   66% 0 mm
22:59 12.7 °C 6.5 °C 1027.3 hPa NW 16.7 km/h 16.7 km/h 66% 0 mm
23:04 12.7 °C 6.5 °C 1027.3 hPa NW 16.7 km/h 16.7 km/h 66% 0 mm
23:09 12.7 °C 6.5 °C 1027.3 hPa WNW 16.7 km/h 16.7 km/h 66% 0 mm
23:14 12.8 °C 6.3 °C 1027.3 hPa NW 16.7 km/h 16.7 km/h 65% 0 mm
23:19 12.8 °C 6.3 °C 1027.3 hPa NW 16.7 km/h 16.7 km/h 65% 0 mm
23:24 12.7 °C 6.3 °C 1027.3 hPa NW 16.7 km/h 16.7 km/h 65% 0 mm
23:29 12.7 °C 6.3 °C 1027.3 hPa WNW 16.7 km/h 16.7 km/h 65% 0 mm
23:34 12.8 °C 6.3 °C 1027.3 hPa WNW 16.7 km/h 16.7 km/h 65% 0 mm
23:39 12.7 °C 6.3 °C 1027.3 hPa NW 16.7 km/h 16.7 km/h 65% 0 mm
23:44 12.7 °C 6.5 °C 1027.3 hPa NW 16.7 km/h 16.7 km/h 66% 0 mm
23:49 12.6 °C 6.4 °C 1027.3 hPa North 16.7 km/h 16.7 km/h 66% 0 mm
23:55 12.6 °C 6.4 °C 1027.3 hPa North 16.7 km/h 16.7 km/h 66% 0 mm
Piedmont Bend
Compliments of Weather Underground - 4 mb